SWE35A ESNU-ESSA

Flight info

Callsign SWE35A
Flight time 0h 49m
Altitude FL340
Route DEDIT GALPI BODRI SIPRI N5 VACRA
Aircraft PC24/M-S/N

Departure

Time 2026-04-17 12:34
Airport Umeå Airport (ESNU)

Arrival

Time 2026-04-17 13:23
Airport Stockholm-Arlanda Airport (ESSA)
Time Latitude Longitude Altitude Speed Heading
2026-04-17 12:19 63.79225 20.28820 28 ft 0 kts 45°
2026-04-17 12:23 63.79225 20.28821 28 ft 0 kts 45°
2026-04-17 12:23 63.79226 20.28822 28 ft 0 kts 45°
2026-04-17 12:24 63.79226 20.28823 28 ft 0 kts 45°
2026-04-17 12:25 63.79227 20.28824 28 ft 0 kts 45°
2026-04-17 12:25 63.79227 20.28825 28 ft 0 kts 45°
2026-04-17 12:26 63.79227 20.28826 28 ft 0 kts 45°
2026-04-17 12:26 63.79228 20.28826 28 ft 0 kts 45°
2026-04-17 12:26 63.79228 20.28827 28 ft 0 kts 45°
2026-04-17 12:27 63.79228 20.28828 28 ft 0 kts 45°
2026-04-17 12:27 63.79229 20.28828 28 ft 0 kts 45°
2026-04-17 12:28 63.79229 20.28829 28 ft 0 kts 45°
2026-04-17 12:28 63.79229 20.28830 28 ft 0 kts 45°
2026-04-17 12:29 63.79230 20.28831 28 ft 0 kts 45°
2026-04-17 12:29 63.79245 20.28835 28 ft 3 kts 333°
2026-04-17 12:29 63.79269 20.28754 28 ft 6 kts 282°
2026-04-17 12:29 63.79270 20.28742 28 ft 1 kts 282°
2026-04-17 12:30 63.79260 20.28663 28 ft 10 kts 229°
2026-04-17 12:30 63.79206 20.28522 28 ft 15 kts 229°
2026-04-17 12:30 63.79155 20.28343 28 ft 10 kts 294°
2026-04-17 12:30 63.79264 20.28110 28 ft 35 kts 318°
2026-04-17 12:31 63.79448 20.27748 28 ft 34 kts 321°
2026-04-17 12:31 63.79624 20.27437 28 ft 32 kts 322°
2026-04-17 12:31 63.79799 20.27104 28 ft 30 kts 321°
2026-04-17 12:31 63.79857 20.26917 28 ft 11 kts 172°
2026-04-17 12:32 63.79814 20.27011 28 ft 2 kts 136°
2026-04-17 12:32 63.79813 20.27012 28 ft 0 kts 136°
2026-04-17 12:33 63.79813 20.27013 28 ft 0 kts 136°
2026-04-17 12:33 63.79812 20.27015 28 ft 3 kts 136°
2026-04-17 12:33 63.79649 20.27348 28 ft 73 kts 138°
2026-04-17 12:33 63.79085 20.28481 28 ft 130 kts 137°
2026-04-17 12:34 63.78308 20.30009 124 ft 160 kts 137°
2026-04-17 12:34 63.77392 20.31709 594 ft 179 kts 138°
2026-04-17 12:34 63.76396 20.33539 1022 ft 189 kts 139°
2026-04-17 12:34 63.75365 20.35439 1440 ft 194 kts 139°
2026-04-17 12:35 63.74314 20.37393 1851 ft 198 kts 139°
2026-04-17 12:35 63.73330 20.39237 2227 ft 200 kts 139°
2026-04-17 12:35 63.72171 20.40955 2630 ft 202 kts 155°
2026-04-17 12:35 63.70992 20.41809 2999 ft 204 kts 167°
2026-04-17 12:37 63.60142 20.35732 5923 ft 256 kts 194°
2026-04-17 12:37 63.58424 20.34593 6318 ft 261 kts 195°
2026-04-17 12:38 63.56670 20.33436 6726 ft 265 kts 197°
2026-04-17 12:38 63.54894 20.32249 7130 ft 269 kts 197°
2026-04-17 12:38 63.53104 20.31048 7532 ft 272 kts 197°
2026-04-17 12:38 63.51286 20.29861 7933 ft 274 kts 197°
2026-04-17 12:39 63.49448 20.28671 8335 ft 277 kts 196°
2026-04-17 12:39 63.47612 20.27477 8735 ft 279 kts 197°
2026-04-17 12:39 63.45723 20.26255 9148 ft 295 kts 197°
2026-04-17 12:39 63.43606 20.24878 9655 ft 334 kts 197°
2026-04-17 12:40 63.41289 20.23340 10149 ft 358 kts 198°
2026-04-17 12:40 63.38860 20.21724 10563 ft 373 kts 197°
2026-04-17 12:40 63.36356 20.20056 10978 ft 381 kts 197°
2026-04-17 12:40 63.33799 20.18350 11389 ft 387 kts 197°
2026-04-17 12:41 63.31215 20.16631 11794 ft 392 kts 197°
2026-04-17 12:41 63.28594 20.14933 12196 ft 396 kts 197°
2026-04-17 12:41 63.25957 20.13250 12595 ft 399 kts 197°
2026-04-17 12:41 63.23257 20.11537 12999 ft 403 kts 196°
2026-04-17 12:42 63.20848 20.10011 13359 ft 405 kts 196°
2026-04-17 12:42 63.18126 20.08317 13759 ft 408 kts 196°
2026-04-17 12:42 63.15390 20.06653 14159 ft 410 kts 195°
2026-04-17 12:42 63.12632 20.04995 14559 ft 413 kts 195°
2026-04-17 12:43 63.09877 20.03351 14955 ft 416 kts 195°
2026-04-17 12:43 63.07077 20.01688 15355 ft 418 kts 195°
2026-04-17 12:43 63.04269 20.00030 15753 ft 421 kts 195°
2026-04-17 12:43 63.01458 19.98378 16150 ft 424 kts 195°
2026-04-17 12:44 62.98603 19.96708 16549 ft 426 kts 195°
2026-04-17 12:44 62.95731 19.95035 16949 ft 429 kts 195°
2026-04-17 12:44 62.92845 19.93362 17346 ft 432 kts 195°
2026-04-17 12:44 62.89934 19.91679 17746 ft 435 kts 195°
2026-04-17 12:45 62.87006 19.89995 18146 ft 438 kts 195°
2026-04-17 12:45 62.84049 19.88301 18546 ft 441 kts 195°
2026-04-17 12:45 62.81132 19.86637 18939 ft 444 kts 195°
2026-04-17 12:45 62.78138 19.84920 19340 ft 447 kts 195°
2026-04-17 12:46 62.75129 19.83199 19741 ft 449 kts 194°
2026-04-17 12:46 62.72101 19.81496 20141 ft 451 kts 194°
2026-04-17 12:46 62.69081 19.79802 20541 ft 453 kts 194°
2026-04-17 12:46 62.66034 19.78086 20978 ft 455 kts 194°
2026-04-17 12:47 62.62962 19.76357 21426 ft 458 kts 194°
2026-04-17 12:47 62.59880 19.74621 21876 ft 460 kts 194°
2026-04-17 12:47 62.56790 19.72870 22326 ft 461 kts 194°
2026-04-17 12:47 62.53684 19.71108 22775 ft 462 kts 193°
2026-04-17 12:48 62.50575 19.69379 23222 ft 463 kts 193°
2026-04-17 12:48 62.47458 19.67666 23678 ft 463 kts 195°
2026-04-17 12:48 62.44350 19.65951 24125 ft 461 kts 196°
2026-04-17 12:48 62.41254 19.64228 24532 ft 461 kts 196°
2026-04-17 12:49 62.38163 19.62502 24929 ft 461 kts 196°
2026-04-17 12:49 62.35071 19.60775 25325 ft 461 kts 196°
2026-04-17 12:49 62.31970 19.59043 25717 ft 460 kts 196°
2026-04-17 12:49 62.28883 19.57321 26076 ft 461 kts 196°
2026-04-17 12:50 62.25783 19.55594 26425 ft 461 kts 196°
2026-04-17 12:50 62.22713 19.53887 26769 ft 461 kts 196°
2026-04-17 12:50 62.19583 19.52151 27109 ft 462 kts 196°
2026-04-17 12:50 62.16480 19.50432 27434 ft 462 kts 196°
2026-04-17 12:51 62.13370 19.48712 27757 ft 463 kts 196°
2026-04-17 12:51 62.10254 19.46992 28080 ft 463 kts 196°
2026-04-17 12:51 62.07146 19.45281 28403 ft 463 kts 196°
2026-04-17 12:51 62.04029 19.43571 28726 ft 463 kts 196°
2026-04-17 12:52 62.00917 19.41870 29033 ft 463 kts 196°
2026-04-17 12:52 61.97794 19.40168 29295 ft 465 kts 196°
2026-04-17 12:52 61.94673 19.38472 29546 ft 465 kts 196°
2026-04-17 12:52 61.91564 19.36786 29792 ft 466 kts 196°
2026-04-17 12:53 61.88419 19.35084 30040 ft 467 kts 196°
2026-04-17 12:53 61.85306 19.33402 30283 ft 467 kts 196°
2026-04-17 12:53 61.82164 19.31708 30527 ft 468 kts 196°
2026-04-17 12:53 61.79053 19.30035 30770 ft 467 kts 196°
2026-04-17 12:54 61.75899 19.28347 31015 ft 467 kts 196°
2026-04-17 12:54 61.72752 19.26668 31260 ft 467 kts 196°
2026-04-17 12:54 61.69604 19.24992 31505 ft 467 kts 196°
2026-04-17 12:54 61.66485 19.23334 31748 ft 468 kts 196°
2026-04-17 12:55 61.63363 19.21677 31991 ft 468 kts 196°
2026-04-17 12:55 61.60207 19.20003 32173 ft 469 kts 196°
2026-04-17 12:55 61.57066 19.18339 32303 ft 471 kts 196°
2026-04-17 12:56 61.50673 19.14975 32319 ft 478 kts 195°
2026-04-17 12:56 61.44177 19.11690 31957 ft 489 kts 195°
2026-04-17 12:56 61.40849 19.10031 31536 ft 496 kts 195°
2026-04-17 12:57 61.37480 19.08361 31097 ft 500 kts 195°
2026-04-17 12:57 61.34097 19.06689 30657 ft 503 kts 195°
2026-04-17 12:57 61.30684 19.05008 30213 ft 505 kts 195°
2026-04-17 12:57 61.27273 19.03332 29771 ft 506 kts 195°
2026-04-17 12:58 61.23846 19.01650 29327 ft 506 kts 195°
2026-04-17 12:58 61.20441 18.99945 28884 ft 506 kts 195°
2026-04-17 12:58 61.17025 18.98208 28440 ft 506 kts 195°
2026-04-17 12:58 61.13643 18.96501 28000 ft 505 kts 195°
2026-04-17 12:59 61.10269 18.94833 27559 ft 503 kts 195°
2026-04-17 12:59 61.07170 18.93316 27151 ft 501 kts 195°
2026-04-17 12:59 61.03798 18.91674 26706 ft 499 kts 195°
2026-04-17 12:59 61.00432 18.90038 26259 ft 496 kts 194°
2026-04-17 13:00 60.97088 18.88414 25811 ft 494 kts 194°
2026-04-17 13:00 60.93753 18.86789 25362 ft 492 kts 194°
2026-04-17 13:00 60.90464 18.85179 24919 ft 490 kts 194°
2026-04-17 13:00 60.87173 18.83564 24474 ft 487 kts 194°
2026-04-17 13:01 60.83890 18.81949 24026 ft 485 kts 194°
2026-04-17 13:01 60.80621 18.80338 23578 ft 482 kts 194°
2026-04-17 13:01 60.77375 18.78733 23127 ft 480 kts 194°
2026-04-17 13:01 60.74151 18.77132 22681 ft 478 kts 194°
2026-04-17 13:02 60.70930 18.75533 22234 ft 476 kts 194°
2026-04-17 13:02 60.67725 18.73946 21787 ft 473 kts 194°
2026-04-17 13:02 60.64542 18.72376 21339 ft 471 kts 194°
2026-04-17 13:02 60.61379 18.70823 20891 ft 468 kts 194°
2026-04-17 13:03 60.58235 18.69286 20445 ft 465 kts 194°
2026-04-17 13:03 60.55122 18.67771 19999 ft 462 kts 194°
2026-04-17 13:03 60.52009 18.66263 19551 ft 460 kts 194°
2026-04-17 13:03 60.48917 18.64771 19104 ft 457 kts 194°
2026-04-17 13:04 60.45841 18.63294 18656 ft 454 kts 194°
2026-04-17 13:04 60.42782 18.61831 18207 ft 452 kts 194°
2026-04-17 13:04 60.39758 18.60389 17758 ft 450 kts 194°
2026-04-17 13:04 60.36723 18.58968 17313 ft 448 kts 194°
2026-04-17 13:05 60.33700 18.57570 16866 ft 446 kts 193°
2026-04-17 13:05 60.30692 18.56190 16420 ft 444 kts 193°
2026-04-17 13:05 60.27712 18.54830 15974 ft 441 kts 193°
2026-04-17 13:05 60.24743 18.53479 15527 ft 438 kts 193°
2026-04-17 13:06 60.21780 18.52135 15079 ft 435 kts 193°
2026-04-17 13:06 60.18848 18.50806 14631 ft 432 kts 193°
2026-04-17 13:06 60.15933 18.49463 14183 ft 429 kts 194°
2026-04-17 13:06 60.13055 18.48119 13736 ft 426 kts 193°
2026-04-17 13:07 60.10208 18.46806 13291 ft 424 kts 193°
2026-04-17 13:07 60.07344 18.45495 12844 ft 422 kts 193°
2026-04-17 13:07 60.04502 18.44201 12396 ft 419 kts 193°
2026-04-17 13:07 60.01677 18.42917 11947 ft 416 kts 193°
2026-04-17 13:08 59.98893 18.41652 11502 ft 413 kts 193°
2026-04-17 13:08 59.96108 18.40387 11054 ft 410 kts 193°
2026-04-17 13:08 59.93351 18.39133 10606 ft 407 kts 193°
2026-04-17 13:08 59.90608 18.37885 10396 ft 404 kts 193°
2026-04-17 13:09 59.87878 18.36642 10106 ft 403 kts 193°
2026-04-17 13:09 59.85188 18.35451 9654 ft 400 kts 193°
2026-04-17 13:09 59.82522 18.34302 9210 ft 384 kts 192°
2026-04-17 13:09 59.80009 18.33233 8709 ft 357 kts 192°
2026-04-17 13:10 59.77661 18.32243 8375 ft 333 kts 192°
2026-04-17 13:10 59.75491 18.31333 8261 ft 308 kts 192°
2026-04-17 13:10 59.73469 18.30489 8268 ft 294 kts 192°
2026-04-17 13:10 59.71501 18.29670 8281 ft 287 kts 192°
2026-04-17 13:11 59.69584 18.28874 8286 ft 283 kts 192°
2026-04-17 13:11 59.67649 18.28070 7855 ft 284 kts 192°
2026-04-17 13:11 59.65731 18.27275 7408 ft 281 kts 192°
2026-04-17 13:11 59.63847 18.26494 6966 ft 279 kts 192°
2026-04-17 13:12 59.61987 18.25722 6703 ft 274 kts 192°
2026-04-17 13:12 59.58310 18.24200 6095 ft 270 kts 192°
2026-04-17 13:12 59.56485 18.23446 5792 ft 269 kts 192°
2026-04-17 13:13 59.54661 18.22677 5490 ft 268 kts 192°
2026-04-17 13:13 59.52900 18.21545 5198 ft 267 kts 204°
2026-04-17 13:13 59.51265 18.19874 4906 ft 267 kts 210°
2026-04-17 13:13 59.49669 18.18016 4605 ft 266 kts 211°
2026-04-17 13:14 59.48113 18.16127 4324 ft 265 kts 212°
2026-04-17 13:14 59.46558 18.14209 4136 ft 264 kts 212°
2026-04-17 13:14 59.45046 18.12236 4027 ft 263 kts 217°
2026-04-17 13:14 59.43643 18.10003 3993 ft 254 kts 220°
2026-04-17 13:15 59.42392 18.07855 3976 ft 237 kts 221°
2026-04-17 13:15 59.41189 18.05741 3981 ft 232 kts 222°
2026-04-17 13:15 59.40010 18.03656 3979 ft 226 kts 222°
2026-04-17 13:15 59.38864 18.01629 3981 ft 222 kts 222°
2026-04-17 13:16 59.37728 17.99620 3984 ft 219 kts 222°
2026-04-17 13:16 59.36700 17.97487 3975 ft 217 kts 239°
2026-04-17 13:16 59.36313 17.94685 4003 ft 215 kts 270°
2026-04-17 13:16 59.36420 17.91800 4004 ft 214 kts 279°
2026-04-17 13:17 59.36649 17.88942 3985 ft 209 kts 281°
2026-04-17 13:17 59.36898 17.86172 3982 ft 206 kts 282°
2026-04-17 13:17 59.37214 17.83494 3976 ft 202 kts 295°
2026-04-17 13:17 59.38106 17.81473 3990 ft 201 kts 330°
2026-04-17 13:18 59.39411 17.80851 4009 ft 198 kts
2026-04-17 13:18 59.40656 17.81763 4030 ft 195 kts 33°
2026-04-17 13:18 59.41731 17.83352 4017 ft 194 kts 40°
2026-04-17 13:18 59.42732 17.85043 4006 ft 192 kts 41°
2026-04-17 13:19 59.43725 17.86769 4006 ft 191 kts 42°
2026-04-17 13:19 59.44584 17.88271 4007 ft 191 kts 42°
2026-04-17 13:19 59.45685 17.89832 4000 ft 191 kts 24°
2026-04-17 13:19 59.46948 17.90530 4023 ft 191 kts 12°
2026-04-17 13:20 59.48260 17.90970 3685 ft 195 kts 10°
2026-04-17 13:20 59.49601 17.91351 3236 ft 194 kts
2026-04-17 13:20 59.50928 17.91712 2793 ft 193 kts
2026-04-17 13:20 59.52226 17.92065 2647 ft 187 kts
2026-04-17 13:21 59.53518 17.92391 2422 ft 190 kts
2026-04-17 13:21 59.54819 17.92710 2087 ft 183 kts
2026-04-17 13:21 59.56040 17.93029 1871 ft 173 kts
2026-04-17 13:21 59.57223 17.93249 1636 ft 166 kts
2026-04-17 13:22 59.58366 17.93477 1278 ft 168 kts
2026-04-17 13:22 59.59539 17.93782 830 ft 174 kts
2026-04-17 13:22 59.60733 17.94290 442 ft 174 kts 14°
2026-04-17 13:22 59.61878 17.94800 250 ft 165 kts 11°
2026-04-17 13:23 59.62956 17.95192 125 ft 138 kts
2026-04-17 13:23 59.63602 17.95421 126 ft 62 kts
2026-04-17 13:23 59.64037 17.95553 128 ft 57 kts 12°
2026-04-17 13:23 59.64413 17.95684 128 ft 31 kts 360°
2026-04-17 13:24 59.64646 17.95570 128 ft 29 kts 343°
2026-04-17 13:24 59.64816 17.95458 128 ft 26 kts 359°
2026-04-17 13:24 59.64865 17.95465 128 ft 0 kts
2026-04-17 13:24 59.64940 17.95491 128 ft 15 kts 10°
2026-04-17 13:25 59.65050 17.95468 128 ft 19 kts 345°
2026-04-17 13:25 59.65178 17.95405 128 ft 18 kts 346°
2026-04-17 13:25 59.65305 17.95342 128 ft 19 kts 345°
2026-04-17 13:25 59.65442 17.95274 128 ft 23 kts 346°
2026-04-17 13:26 59.65584 17.95204 128 ft 21 kts 346°
2026-04-17 13:26 59.65732 17.95129 128 ft 21 kts 347°
2026-04-17 13:26 59.65843 17.95121 128 ft 14 kts 42°
2026-04-17 13:26 59.65874 17.95295 128 ft 13 kts 80°
2026-04-17 13:27 59.65825 17.95390 128 ft 11 kts 159°
2026-04-17 13:27 59.65726 17.95445 128 ft 15 kts 167°
2026-04-17 13:27 59.65629 17.95493 128 ft 13 kts 166°
2026-04-17 13:27 59.65583 17.95516 128 ft 0 kts 166°
2026-04-17 13:28 59.65582 17.95516 128 ft 0 kts 166°
2026-04-17 13:29 59.65582 17.95517 128 ft 0 kts 166°
2026-04-17 13:29 59.65581 17.95517 128 ft 0 kts 166°
2026-04-17 13:30 59.65580 17.95517 128 ft 0 kts 166°
2026-04-17 13:31 59.65580 17.95518 128 ft 0 kts 166°
2026-04-17 13:31 59.65579 17.95518 128 ft 0 kts 166°